Location: Bacharowice
(49.9333°N, 19.5833°E)
Time: 06:40:13
(UTC+00:00)

Cosmos 1908 Rocket - Pass Details

Date: 04 October 2021
Orbit: 605 x 633 km, 82.5° (Epoch: 25 October)

Event Time Altitude Azimuth Distance (km) Brightness Sun altitude
Rises 01:46:38 0° 5° (N) 2,898 7.5 -28.6°
Reaches altitude 10° 01:50:08 10° 34° (NE) 1,980 6.9 -28.1°
Maximum altitude 01:52:05 13° 61° (ENE) 1,797 6.8 -27.9°
Drops below altitude 10° 01:54:03 10° 88° (E) 1,967 6.9 -27.6°
Sets 01:57:29 0° 117° (ESE) 2,860 7.4 -27.1°
